Αρχική σελίδα
METAR-TAF:

METAR-TAF

Αεροδρόμια :

Hebron Municipal Airport

Hebron, Νεμπράσκα, Ηνωμένες Πολιτείες Αμερικής

γεωγραφικό πλάτος: 40-09-08N, γεωγραφικό μήκος: 097-35-13W, υψόμετρο: 447 μ

Παρών καιρός

Η αναφορά έγινε 16 λεπτά πριν, στις 10:15 UTC
Άνεμος 6 kt από Ν
Θερμοκρασία 22°C
Υγρασία 88%
Πίεση 1011 hPa
Ορατότητα: 16.1 χλμ
Καθαρός ουρανός

METAR: KHJH 191015Z AUTO 18006KT 10SM CLR 22/20 A2985 RMK AO2 T02180197

Χρόνος: 05:31 (10:31 UTC)


TAF: λείπει

Μετεωρολογικές αναφορές και προγνώσεις για περισσότερα από 4000 αεροδρόμια (δελτία METAR και TAF).

Οι διαθέσιμοι σταθμοί απεικονίζονται στο χάρτη με κίτρινες και κόκκινες κουκκίδες.

Μετακινήστε το ποντίκι πάνω από τις κουκκίδες για να δείτε το όνομα του σταθμού.

Στη συνέχεια, κάντε κλικ για να δείτε τις μετεωρολογικές αναφορές και τις προγνώσεις καιρού.

Για να αλλάξετε το χάρτη: κάντε κλικ στα πράσινα κουμπιά με τον μαύρο σταυρό για να ζουμάρετε, στο πράσινο κουμπί με την παύλα για να αφαιρέσετε το ζουμ ή στα πράσινα βέλη για να αντιπαραβάλλετε χάρτες.


METAR-TAF: